"Pseudo-MPEC" for P10XT3S

Created 2020 Mar 27 3:07:13 UT using Find_Orb

Click here for an explanation of pseudo-MPECs

 
 Astrometry: 
     P10XT3S  C2020 03 21iy8Astrometry8BOvrea:s;n+-1RM5$%*Y^7KV(redacted;Iqq;F51
     P10XT3S  C2020 03 21c9D`f0!)NhI`uclickPOSV3here2:K]JSUs$Mhhf3(RC)2E;nHUCF51
     P10XT3S  C2020 03 21x^w.q/#BGMOG.OivpXHforya5%`PNb_q:CHI:XL7%y@'N1jJ'F\)F51
     P10XT3S  C2020 03 21FCrK]Sya%:*Mcy+explanation56dhVFC+Wg/^3lAYi:_'l$q@bEF51

Station data:
(F51) Pan-STARRS 1, Haleakala  (N20.707235 W156.255910)  US/Hawaii.
   Observers N. Primak, A. Schultz, S. Watters, J. Thiel, T. Goggia. Measurer
   PS1 Science Consortium. 1.8-m Ritchey-Chrétien + CCD.

Orbital elements:  P10XT3S
   Perihelion 2020 Mar 26.463817 +/- 22.4 TT = 11:07:53 (JD 2458934.963817)
Epoch 2020 Mar 21.0 TT = JDT 2458929.5   Earth MOID: 0.0122   Ma: 0.0115
M 356.23761350 +/- 12               (J2000 ecliptic)          AutoNEOCP
n   0.68860042 +/- 0.352            Peri.  188.11505 +/- 28
a   1.27006084 +/- 0.432            Node   358.10659 +/- 0.8
e   0.2065739 +/- 0.258             Incl.    3.31590 +/- 5.1
P   1.43/522.79d           H 28.9   G  0.15   U 12.0  SR
q 1.00769941 +/- 0.0514    Q 1.53242227 +/- 45
From 4 observations 2020 Mar. 21 (54.3 min); mean residual 0".37
Residuals in arcseconds: 
200321 F51  .17-  .43+    200321 F51  .03-  .36+    
200321 F51  .27+  .83-    200321 F51  .07-  .03+    

Ephemerides (geocentric):
Date (UTC) HH   RA              Dec         delta   r     elong  mag " sig PA
---- -- -- --  -------------   -----------  ------ ------ -----  --- ---- ---
2020 03 27 03  12 48 36.450   -48 48 28.73  .01403 1.0076 133.5 21.4  22d  28
2020 03 27 04  12 49 41.355   -49 01 34.24  .01407 1.0076 133.3 21.4  22d  28
2020 03 27 05  12 50 46.455   -49 14 32.80  .01411 1.0076 133.1 21.4  22d  28
2020 03 27 06  12 51 51.747   -49 27 24.44  .01415 1.0076 132.9 21.4  22d  28
2020 03 27 07  12 52 57.230   -49 40 09.16  .01419 1.0076 132.7 21.4  22d  28
2020 03 27 08  12 54 02.900   -49 52 46.96  .01423 1.0076 132.4 21.4  22d  28
2020 03 27 09  12 55 08.755   -50 05 17.85  .01427 1.0076 132.2 21.4  22d  28
2020 03 27 10  12 56 14.793   -50 17 41.84  .01432 1.0076 132.0 21.4  22d  28
2020 03 27 11  12 57 21.012   -50 29 58.94  .01436 1.0076 131.8 21.5  22d  28
2020 03 27 12  12 58 27.409   -50 42 09.17  .01440 1.0076 131.6 21.5  22d  28
2020 03 27 13  12 59 33.981   -50 54 12.54  .01444 1.0076 131.4 21.5  23d  28
2020 03 27 14  13 00 40.725   -51 06 09.05  .01449 1.0076 131.2 21.5  23d  27
2020 03 27 15  13 01 47.640   -51 17 58.74  .01453 1.0076 131.0 21.5  23d  27
2020 03 27 16  13 02 54.722   -51 29 41.61  .01457 1.0076 130.8 21.5  23d  27
2020 03 27 17  13 04 01.969   -51 41 17.67  .01462 1.0076 130.5 21.5  23d  27
2020 03 27 18  13 05 09.378   -51 52 46.96  .01466 1.0076 130.3 21.5  23d  27
2020 03 27 19  13 06 16.945   -52 04 09.48  .01471 1.0076 130.1 21.6  23d  27
2020 03 27 20  13 07 24.669   -52 15 25.26  .01475 1.0076 129.9 21.6  23d  27
2020 03 27 21  13 08 32.546   -52 26 34.32  .01480 1.0076 129.7 21.6  23d  27
2020 03 27 22  13 09 40.573   -52 37 36.68  .01484 1.0076 129.5 21.6  23d  27
2020 03 27 23  13 10 48.747   -52 48 32.36  .01489 1.0076 129.3 21.6  23d  27
2020 03 28 00  13 11 57.065   -52 59 21.39  .01494 1.0076 129.2 21.6  23d  27
2020 03 28 01  13 13 05.524   -53 10 03.78  .01498 1.0076 129.0 21.6  23d  27
2020 03 28 02  13 14 14.121   -53 20 39.57  .01503 1.0077 128.8 21.6  23d  27
2020 03 28 03  13 15 22.852   -53 31 08.78  .01508 1.0077 128.6 21.7  23d  27
2020 03 28 04  13 16 31.715   -53 41 31.43  .01512 1.0077 128.4 21.7  23d  27
2020 03 28 05  13 17 40.705   -53 51 47.56  .01517 1.0077 128.2 21.7  23d  26
2020 03 28 06  13 18 49.821   -54 01 57.19  .01522 1.0077 128.0 21.7  23d  26
2020 03 28 07  13 19 59.058   -54 12 00.35  .01527 1.0077 127.8 21.7  23d  26
2020 03 28 08  13 21 08.413   -54 21 57.06  .01532 1.0077 127.6 21.7  23d  26
2020 03 28 09  13 22 17.882   -54 31 47.36  .01536 1.0077 127.5 21.7  23d  26
2020 03 28 10  13 23 27.463   -54 41 31.28  .01541 1.0077 127.3 21.7  23d  26
2020 03 28 11  13 24 37.151   -54 51 08.85  .01546 1.0077 127.1 21.8  23d  26
2020 03 28 12  13 25 46.944   -55 00 40.10  .01551 1.0077 126.9 21.8  23d  26
2020 03 28 13  13 26 56.837   -55 10 05.06  .01556 1.0077 126.7 21.8  23d  26
2020 03 28 14  13 28 06.826   -55 19 23.77  .01561 1.0077 126.6 21.8  23d  26
2020 03 28 15  13 29 16.910   -55 28 36.25  .01566 1.0077 126.4 21.8  23d  26
2020 03 28 16  13 30 27.082   -55 37 42.54  .01571 1.0077 126.2 21.8  23d  26
2020 03 28 17  13 31 37.341   -55 46 42.68  .01576 1.0077 126.0 21.8  23d  26
2020 03 28 18  13 32 47.682   -55 55 36.69  .01581 1.0077 125.9 21.8  23d  26
2020 03 28 19  13 33 58.102   -56 04 24.62  .01586 1.0077 125.7 21.8  23d  26
2020 03 28 20  13 35 08.596   -56 13 06.49  .01592 1.0077 125.5 21.9  23d  26
2020 03 28 21  13 36 19.161   -56 21 42.35  .01597 1.0077 125.4 21.9  23d  25
2020 03 28 22  13 37 29.794   -56 30 12.23  .01602 1.0077 125.2 21.9  23d  25
2020 03 28 23  13 38 40.489   -56 38 36.17  .01607 1.0077 125.0 21.9  23d  25
2020 03 29 00  13 39 51.244   -56 46 54.20  .01612 1.0077 124.9 21.9  23d  25
2020 03 29 01  13 41 02.055   -56 55 06.35  .01618 1.0077 124.7 21.9  23d  25
2020 03 29 02  13 42 12.918   -57 03 12.68  .01623 1.0077 124.5 21.9  23d  25